| time (UTC) | temp F | wind direction | speed knots | gust knots | rain 1hr in | rain 24hr in | rain mn in | humidity % | barometer mb |
| 20260505070513 | 41 | 176 | 2.6 | 3.5 | 0.00 | 0.00 | 0.00 | 92 | 1009.0 |
| 20260505070012 | 41 | 176 | 2.6 | 3.5 | 0.00 | 0.00 | 0.00 | 92 | 1008.0 |
| 20260505065512 | 41 | 118 | 5.2 | 7.0 | 0.00 | 0.00 | 0.00 | 92 | 1009.0 |
| 20260505065011 | 41 | 173 | 2.6 | 5.2 | 0.00 | 0.00 | 0.00 | 91 | 1008.0 |
| 20260505064511 | 41 | 162 | 7.0 | 7.8 | 0.00 | 0.00 | 0.00 | 90 | 1008.0 |
| 20260505064011 | 42 | 163 | 5.2 | 10.4 | 0.00 | 0.00 | 0.00 | 90 | 1008.0 |
| 20260505063512 | 42 | 148 | 4.3 | 7.8 | 0.00 | 0.00 | 0.00 | 90 | 1008.0 |
| 20260505063012 | 42 | 166 | 5.2 | 5.2 | 0.00 | 0.00 | 0.00 | 90 | 1008.0 |
| 20260505062513 | 42 | 125 | 3.5 | 6.1 | 0.00 | 0.00 | 0.00 | 90 | 1008.0 |
| 20260505062011 | 42 | 165 | 2.6 | 7.8 | 0.00 | 0.00 | 0.00 | 90 | 1008.0 |
| 20260505061515 | 42 | 75 | 1.7 | 1.7 | 0.00 | 0.00 | 0.00 | 90 | 1008.0 |
| 20260505061013 | 42 | 162 | 2.6 | 3.5 | 0.00 | 0.00 | 0.00 | 90 | 1008.0 |
| 20260505060513 | 42 | 183 | 2.6 | 3.5 | 0.00 | 0.00 | 0.00 | 90 | 1008.0 |
| 20260505060013 | 42 | 108 | 1.7 | 4.3 | 0.00 | 0.00 | 0.00 | 89 | 1008.0 |
| 20260505055513 | 42 | 153 | 0.0 | 1.7 | 0.00 | 0.00 | 0.00 | 89 | 1008.0 |
| 20260505055011 | 42 | 147 | 1.7 | 3.5 | 0.00 | 0.00 | 0.00 | 89 | 1008.0 |
| 20260505054512 | 42 | 120 | 1.7 | 2.6 | 0.00 | 0.00 | 0.00 | 89 | 1008.0 |
| 20260505054012 | 42 | 126 | 2.6 | 3.5 | 0.00 | 0.00 | 0.00 | 88 | 1008.0 |
| 20260505053511 | 42 | 178 | 4.3 | 4.3 | 0.00 | 0.00 | 0.00 | 88 | 1007.0 |
| 20260505053011 | 42 | 125 | 4.3 | 6.1 | 0.00 | 0.00 | 0.00 | 88 | 1008.0 |
| 20260505052511 | 42 | 133 | 3.5 | 6.1 | 0.00 | 0.00 | 0.00 | 87 | 1008.0 |
| 20260505052012 | 42 | 131 | 6.1 | 6.1 | 0.00 | 0.00 | 0.00 | 86 | 1008.0 |
| 20260505051511 | 43 | 119 | 2.6 | 6.1 | 0.00 | 0.00 | 0.00 | 85 | 1007.0 |
| 20260505051013 | 43 | 110 | 0.9 | 7.8 | 0.00 | 0.00 | 0.00 | 83 | 1007.0 |
| 20260505050513 | 44 | 224 | 5.2 | 7.0 | 0.00 | 0.00 | 0.00 | 82 | 1007.0 |
| 20260505041513 | 45 | 271 | 4.3 | 6.1 | 0.00 | 0.00 | 0.00 | 77 | 1007.0 |
| 20260505041012 | 46 | 179 | 5.2 | 7.8 | 0.00 | 0.00 | 0.00 | 77 | 1007.0 |
| 20260505040512 | 46 | 231 | 6.1 | 7.8 | 0.00 | 0.00 | 0.00 | 77 | 1007.0 |
| 20260505040013 | 46 | 171 | 5.2 | 7.8 | 0.00 | 0.00 | 0.00 | 76 | 1007.0 |
| 20260505035515 | 46 | 85 | 1.7 | 8.7 | 0.00 | 0.00 | 0.00 | 76 | 1007.0 |
| 20260505035012 | 46 | 251 | 6.1 | 7.0 | 0.00 | 0.00 | 0.00 | 76 | 1007.0 |
| 20260505034513 | 46 | 323 | 2.6 | 6.1 | 0.00 | 0.00 | 0.00 | 76 | 1007.0 |
| 20260505034012 | 46 | 249 | 4.3 | 9.6 | 0.00 | 0.00 | 0.00 | 77 | 1006.0 |
| 20260505033511 | 46 | 281 | 5.2 | 6.1 | 0.00 | 0.00 | 0.00 | 77 | 1006.0 |
| 20260505033012 | 46 | 186 | 5.2 | 6.1 | 0.00 | 0.00 | 0.00 | 77 | 1006.0 |
| 20260505032512 | 46 | 217 | 7.8 | 7.8 | 0.00 | 0.00 | 0.00 | 76 | 1006.0 |
| 20260505032015 | 46 | 219 | 6.1 | 14.8 | 0.00 | 0.00 | 0.00 | 76 | 1006.0 |
| 20260505031511 | 47 | 224 | 3.5 | 9.6 | 0.00 | 0.00 | 0.00 | 76 | 1006.0 |
| 20260505031015 | 47 | 273 | 4.3 | 6.1 | 0.00 | 0.00 | 0.00 | 76 | 1006.0 |
| 20260505030511 | 46 | 202 | 7.0 | 8.7 | 0.00 | 0.00 | 0.00 | 77 | 1006.0 |
| 20260505030011 | 46 | 218 | 2.6 | 5.2 | 0.00 | 0.00 | 0.57 | 77 | 1006.0 |
| 20260505025511 | 46 | 211 | 2.6 | 8.7 | 0.00 | 0.00 | 0.57 | 77 | 1006.0 |
| 20260505025012 | 46 | 222 | 4.3 | 6.1 | 0.00 | 0.00 | 0.57 | 78 | 1006.0 |
| 20260505024511 | 46 | 238 | 4.3 | 4.3 | 0.00 | 0.00 | 0.57 | 78 | 1006.0 |
| 20260505024012 | 46 | 171 | 3.5 | 5.2 | 0.00 | 0.00 | 0.57 | 78 | 1006.0 |
| 20260505023511 | 46 | 299 | 3.5 | 6.1 | 0.00 | 0.00 | 0.57 | 78 | 1006.0 |
| 20260505023011 | 46 | 162 | 0.9 | 4.3 | 0.00 | 0.00 | 0.57 | 78 | 1006.0 |
| 20260505022513 | 46 | 263 | 4.3 | 6.1 | 0.00 | 0.00 | 0.57 | 78 | 1006.0 |
| 20260505022011 | 46 | 80 | 0.9 | 4.3 | 0.00 | 0.00 | 0.57 | 77 | 1005.0 |
| 20260505021512 | 46 | 140 | 1.7 | 5.2 | 0.00 | 0.00 | 0.57 | 77 | 1005.0 |
| 20260505021011 | 46 | 191 | 6.1 | 8.7 | 0.00 | 0.00 | 0.57 | 78 | 1005.0 |
| 20260505020511 | 46 | 235 | 4.3 | 7.0 | 0.00 | 0.00 | 0.57 | 78 | 1005.0 |
| 20260505020012 | 46 | 221 | 1.7 | 5.2 | 0.00 | 0.00 | 0.57 | 77 | 1005.0 |
| 20260505015512 | 46 | 123 | 1.7 | 4.3 | 0.00 | 0.00 | 0.57 | 76 | 1005.0 |
| 20260505015011 | 46 | 98 | 1.7 | 2.6 | 0.00 | 0.00 | 0.57 | 76 | 1005.0 |
| 20260505014511 | 47 | 234 | 4.3 | 6.1 | 0.00 | 0.00 | 0.57 | 76 | 1005.0 |
| 20260505014013 | 47 | 219 | 6.1 | 6.1 | 0.00 | 0.00 | 0.57 | 76 | 1005.0 |
| 20260505013511 | 47 | 206 | 2.6 | 7.0 | 0.00 | 0.00 | 0.57 | 76 | 1005.0 |
| 20260505013011 | 47 | 162 | 0.9 | 6.1 | 0.00 | 0.00 | 0.57 | 75 | 1005.0 |
| 20260505012512 | 47 | 235 | 3.5 | 5.2 | 0.00 | 0.00 | 0.57 | 75 | 1005.0 |
| 20260505012013 | 48 | 180 | 7.0 | 7.8 | 0.00 | 0.00 | 0.57 | 74 | 1005.0 |
| 20260505011512 | 48 | 191 | 2.6 | 5.2 | 0.00 | 0.00 | 0.57 | 74 | 1005.0 |
| 20260505011012 | 48 | 227 | 4.3 | 7.0 | 0.00 | 0.00 | 0.57 | 73 | 1004.0 |
| 20260505010511 | 48 | 151 | 3.5 | 9.6 | 0.00 | 0.00 | 0.57 | 73 | 1004.0 |
| 20260505010012 | 48 | 221 | 2.6 | 12.2 | 0.00 | 0.00 | 0.57 | 73 | 1004.0 |
| 20260505005512 | 48 | 231 | 6.1 | 10.4 | 0.00 | 0.00 | 0.57 | 72 | 1004.0 |
| 20260505005012 | 49 | 296 | 3.5 | 10.4 | 0.00 | 0.00 | 0.57 | 72 | 1004.0 |
| 20260505004511 | 49 | 228 | 4.3 | 8.7 | 0.00 | 0.00 | 0.57 | 72 | 1004.0 |
| 20260505004014 | 49 | 197 | 5.2 | 8.7 | 0.00 | 0.00 | 0.57 | 72 | 1004.0 |
| 20260505003512 | 49 | 231 | 5.2 | 13.0 | 0.00 | 0.00 | 0.57 | 71 | 1004.0 |
| 20260505003012 | 49 | 251 | 9.6 | 10.4 | 0.00 | 0.00 | 0.57 | 71 | 1004.0 |
| 20260505002512 | 49 | 254 | 4.3 | 12.2 | 0.00 | 0.00 | 0.57 | 71 | 1004.0 |
| 20260505002011 | 49 | 203 | 2.6 | 9.6 | 0.00 | 0.00 | 0.57 | 71 | 1003.0 |
| 20260505001513 | 50 | 230 | 4.3 | 9.6 | 0.00 | 0.00 | 0.57 | 70 | 1003.0 |
| 20260505001011 | 50 | 228 | 5.2 | 8.7 | 0.00 | 0.00 | 0.57 | 70 | 1003.0 |
| 20260505000511 | 50 | 200 | 3.5 | 11.3 | 0.00 | 0.00 | 0.57 | 69 | 1003.0 |
| 20260505000011 | 50 | 192 | 4.3 | 11.3 | 0.00 | 0.00 | 0.57 | 69 | 1003.0 |
| 20260504235512 | 50 | 221 | 4.3 | 15.6 | 0.00 | 0.00 | 0.57 | 68 | 1003.0 |
| 20260504235011 | 50 | 190 | 3.5 | 11.3 | 0.00 | 0.00 | 0.57 | 69 | 1003.0 |
| 20260504234513 | 50 | 213 | 8.7 | 14.8 | 0.00 | 0.00 | 0.57 | 69 | 1003.0 |
| 20260504234011 | 50 | 233 | 7.0 | 12.2 | 0.00 | 0.00 | 0.57 | 69 | 1003.0 |
| 20260504233511 | 50 | 217 | 7.8 | 9.6 | 0.00 | 0.00 | 0.57 | 69 | 1003.0 |
| 20260504233012 | 50 | 203 | 5.2 | 9.6 | 0.00 | 0.00 | 0.57 | 69 | 1002.0 |
| 20260504232511 | 50 | 188 | 6.1 | 9.6 | 0.00 | 0.00 | 0.57 | 68 | 1002.0 |
| 20260504232013 | 50 | 238 | 2.6 | 7.8 | 0.00 | 0.00 | 0.57 | 67 | 1002.0 |
| 20260504231519 | 50 | 249 | 7.8 | 8.7 | 0.00 | 0.00 | 0.57 | 66 | 1002.0 |
| 20260504231014 | 51 | 254 | 2.6 | 9.6 | 0.00 | 0.00 | 0.57 | 66 | 1002.0 |
| 20260504230512 | 51 | 252 | 3.5 | 8.7 | 0.00 | 0.00 | 0.57 | 65 | 1002.0 |
| 20260504230013 | 51 | 258 | 5.2 | 9.6 | 0.00 | 0.00 | 0.57 | 64 | 1002.0 |
| 20260504225512 | 51 | 188 | 5.2 | 11.3 | 0.00 | 0.00 | 0.57 | 63 | 1002.0 |
| 20260504225011 | 51 | 245 | 8.7 | 10.4 | 0.00 | 0.00 | 0.57 | 61 | 1002.0 |
| 20260504224512 | 52 | 140 | 3.5 | 9.6 | 0.00 | 0.00 | 0.57 | 59 | 1002.0 |
| 20260504224012 | 52 | 255 | 7.0 | 13.0 | 0.00 | 0.00 | 0.57 | 57 | 1002.0 |
| 20260504223511 | 52 | 221 | 4.3 | 7.8 | 0.00 | 0.00 | 0.57 | 55 | 1002.0 |
| 20260504223013 | 53 | 144 | 4.3 | 11.3 | 0.00 | 0.00 | 0.57 | 53 | 1002.0 |
| 20260504222513 | 53 | 231 | 3.5 | 6.1 | 0.00 | 0.00 | 0.57 | 51 | 1002.0 |
| 20260504222020 | 53 | 240 | 4.3 | 13.9 | 0.00 | 0.00 | 0.57 | 50 | 1002.0 |
| 20260504221512 | 54 | 227 | 3.5 | 7.8 | 0.00 | 0.00 | 0.57 | 49 | 1002.0 |
| 20260504221012 | 54 | 203 | 4.3 | 10.4 | 0.00 | 0.00 | 0.57 | 47 | 1001.0 |
| 20260504220512 | 54 | 206 | 2.6 | 12.2 | 0.00 | 0.00 | 0.57 | 47 | 1001.0 |
| 20260504220012 | 55 | 279 | 6.1 | 10.4 | 0.00 | 0.00 | 0.57 | 46 | 1001.0 |
| 20260504215512 | 55 | 126 | 1.7 | 11.3 | 0.00 | 0.00 | 0.57 | 44 | 1001.0 |
| 20260504215013 | 55 | 247 | 5.2 | 12.2 | 0.00 | 0.00 | 0.57 | 44 | 1001.0 |
| 20260504214511 | 55 | 258 | 13.0 | 21.7 | 0.00 | 0.00 | 0.57 | 43 | 1001.0 |
| 20260504214011 | 55 | 269 | 7.8 | 18.2 | 0.00 | 0.00 | 0.57 | 44 | 1001.0 |
| 20260504213512 | 55 | 256 | 7.8 | 7.8 | 0.00 | 0.00 | 0.57 | 45 | 1001.0 |
| 20260504213013 | 55 | 214 | 4.3 | 12.2 | 0.00 | 0.00 | 0.57 | 44 | 1001.0 |
| 20260504212516 | 55 | 223 | 6.1 | 13.0 | 0.00 | 0.00 | 0.57 | 44 | 1001.0 |
| 20260504212013 | 56 | 255 | 9.6 | 20.0 | 0.00 | 0.00 | 0.57 | 43 | 1001.0 |
| 20260504211513 | 56 | 233 | 4.3 | 8.7 | 0.00 | 0.00 | 0.57 | 43 | 1001.0 |
| 20260504211011 | 57 | 248 | 7.0 | 12.2 | 0.00 | 0.00 | 0.57 | 41 | 1001.0 |
| 20260504210514 | 57 | 234 | 4.3 | 13.9 | 0.00 | 0.00 | 0.57 | 40 | 1001.0 |
| 20260504210014 | 58 | 227 | 6.1 | 13.0 | 0.00 | 0.00 | 0.57 | 38 | 1001.0 |
| 20260504205511 | 59 | 231 | 2.6 | 7.8 | 0.00 | 0.00 | 0.57 | 39 | 1001.0 |
| 20260504205014 | 59 | 241 | 5.2 | 8.7 | 0.00 | 0.00 | 0.57 | 39 | 1001.0 |
| 20260504204514 | 61 | 212 | 2.6 | 8.7 | 0.00 | 0.00 | 0.57 | 36 | 1001.0 |
| 20260504204012 | 61 | 234 | 2.6 | 6.1 | 0.00 | 0.00 | 0.57 | 37 | 1001.0 |
| 20260504203511 | 62 | 238 | 4.3 | 11.3 | 0.00 | 0.00 | 0.57 | 36 | 1000.0 |
| 20260504203015 | 63 | 245 | 13.9 | 16.5 | 0.00 | 0.00 | 0.57 | 34 | 1001.0 |
| 20260504202514 | 64 | 212 | 4.3 | 13.0 | 0.00 | 0.00 | 0.57 | 33 | 1000.0 |
| 20260504202012 | 64 | 249 | 5.2 | 10.4 | 0.00 | 0.00 | 0.57 | 31 | 1000.0 |
| 20260504201511 | 63 | 184 | 3.5 | 13.0 | 0.00 | 0.00 | 0.57 | 33 | 1000.0 |
| 20260504201012 | 62 | 253 | 8.7 | 14.8 | 0.00 | 0.00 | 0.57 | 31 | 1000.0 |
| 20260504200513 | 62 | 221 | 4.3 | 16.5 | 0.00 | 0.00 | 0.57 | 32 | 1000.0 |
| 20260504200013 | 61 | 254 | 7.8 | 9.6 | 0.00 | 0.00 | 0.57 | 36 | 1000.0 |
| 20260504195513 | 61 | 233 | 2.6 | 11.3 | 0.00 | 0.00 | 0.57 | 35 | 1000.0 |
| 20260504195015 | 61 | 248 | 6.1 | 15.6 | 0.00 | 0.00 | 0.57 | 33 | 1000.0 |
| 20260504194515 | 61 | 250 | 7.0 | 12.2 | 0.00 | 0.00 | 0.57 | 34 | 1000.0 |
| 20260504194013 | 61 | 242 | 7.0 | 11.3 | 0.00 | 0.00 | 0.57 | 36 | 1000.0 |
| 20260504193514 | 61 | 238 | 6.1 | 18.2 | 0.00 | 0.00 | 0.57 | 33 | 1000.0 |
| 20260504193013 | 62 | 261 | 7.0 | 20.0 | 0.00 | 0.00 | 0.57 | 33 | 1000.0 |
| 20260504192120 | 61 | 271 | 7.8 | 10.4 | 0.00 | 0.00 | 0.57 | 35 | 1000.0 |
| 20260504191512 | 60 | 244 | 4.3 | 15.6 | 0.00 | 0.00 | 0.57 | 35 | 1000.0 |
| 20260504191014 | 60 | 247 | 8.7 | 12.2 | 0.00 | 0.00 | 0.57 | 35 | 1000.0 |
| 20260504190512 | 61 | 248 | 12.2 | 15.6 | 0.00 | 0.00 | 0.57 | 34 | 1000.0 |
| 20260504190013 | 61 | 224 | 4.3 | 12.2 | 0.00 | 0.00 | 0.57 | 34 | 1000.0 |
| 20260504185514 | 61 | 231 | 7.8 | 12.2 | 0.00 | 0.00 | 0.57 | 37 | 1000.0 |
| 20260504185012 | 61 | 241 | 5.2 | 10.4 | 0.00 | 0.00 | 0.57 | 37 | 1000.0 |
| 20260504184515 | 60 | 242 | 4.3 | 12.2 | 0.00 | 0.00 | 0.57 | 36 | 1000.0 |
| 20260504184013 | 59 | 249 | 11.3 | 12.2 | 0.00 | 0.00 | 0.57 | 40 | 1000.0 |
| 20260504183513 | 59 | 218 | 11.3 | 12.2 | 0.00 | 0.00 | 0.57 | 39 | 1000.0 |
| 20260504182514 | 59 | 226 | 5.2 | 12.2 | 0.00 | 0.00 | 0.57 | 40 | 1000.0 |
| 20260504182014 | 58 | 279 | 4.3 | 19.1 | 0.00 | 0.00 | 0.57 | 39 | 1000.0 |
| 20260504181514 | 58 | 267 | 7.8 | 10.4 | 0.00 | 0.00 | 0.57 | 45 | 1000.0 |
| 20260504181014 | 58 | 210 | 10.4 | 15.6 | 0.00 | 0.00 | 0.57 | 44 | 1000.0 |
| 20260504180513 | 58 | 200 | 7.8 | 10.4 | 0.00 | 0.00 | 0.57 | 45 | 1000.0 |
| 20260504175549 | 57 | 240 | 7.8 | 12.2 | 0.00 | 0.00 | 0.57 | 45 | 1000.0 |
| 20260504175013 | 56 | 247 | 8.7 | 9.6 | 0.00 | 0.00 | 0.57 | 49 | 1000.0 |
| 20260504174513 | 56 | 211 | 14.8 | 16.5 | 0.00 | 0.00 | 0.57 | 47 | 1000.0 |
| 20260504174013 | 56 | 225 | 9.6 | 15.6 | 0.00 | 0.00 | 0.57 | 48 | 1000.0 |
| 20260504173515 | 56 | 265 | 7.0 | 15.6 | 0.00 | 0.00 | 0.57 | 48 | 1000.0 |
| 20260504173013 | 56 | 239 | 7.8 | 14.8 | 0.00 | 0.00 | 0.57 | 47 | 1000.0 |
| 20260504172514 | 56 | 252 | 12.2 | 21.7 | 0.00 | 0.00 | 0.57 | 47 | 1000.0 |
| 20260504172014 | 57 | 230 | 13.0 | 15.6 | 0.00 | 0.00 | 0.57 | 50 | 1000.0 |
| 20260504171514 | 56 | 211 | 8.7 | 10.4 | 0.00 | 0.00 | 0.57 | 49 | 1000.0 |
| 20260504171016 | 56 | 157 | 19.1 | 20.0 | 0.00 | 0.00 | 0.57 | 49 | 1000.0 |
| 20260504170514 | 56 | 277 | 10.4 | 11.3 | 0.00 | 0.00 | 0.57 | 50 | 1000.0 |
| 20260504151013 | 53 | 240 | 8.7 | 17.4 | 0.00 | 0.00 | 0.57 | 59 | 999.0 |
| 20260504150515 | 53 | 329 | 3.5 | 11.3 | 0.00 | 0.00 | 0.57 | 62 | 999.0 |
| 20260504140625 | 48 | 277 | 13.0 | 17.4 | 0.00 | 0.00 | 0.57 | 74 | 998.0 |
| 20260504130513 | 45 | 251 | 3.5 | 13.9 | 0.00 | 0.00 | 0.57 | 81 | 998.0 |
| 20260504110513 | 41 | 248 | 5.2 | 9.6 | 0.02 | 0.00 | 0.57 | 93 | 996.0 |
| 20260504100516 | 40 | 5 | 5.2 | 20.9 | 0.00 | 0.00 | 0.56 | 95 | 995.0 |
| 20260504081513 | 38 | 354 | 7.8 | 22.6 | 0.09 | 0.00 | 0.45 | 96 | 992.0 |
| 20260504081015 | 38 | 338 | 9.6 | 14.8 | 0.14 | 0.00 | 0.44 | 96 | 992.0 |
| 20260504080515 | 38 | 334 | 11.3 | 20.0 | 0.14 | 0.00 | 0.43 | 95 | 992.0 |